www.pogodaiklimat.ru

Погода и климат >> Архив погоды >> Молдова >> Кишинев


АРХИВ ПОГОДЫ в Кишиневе

Время (UTC), дата Ветер
(напр.,м/с)
 
Видим.   Явления Облачность Т
(С)
Тd
(С)
f
(%)
Тe
(С)
Тes
(С)
Комфортность P
(гПа)
Po
(гПа)
Тmin
(С)
Tmax
(С)
R
(мм)
R24
(мм)
S
(см)
06 13.09 штиль 0 10 км 3/0
[Ac trans Ci fib]
+19.2 +16.1 82 +21 +24 комфорт 1009.3 989.6 +16.5
09 13.09 СЗ 4 20 км 10/8 600 м
[Sc Ac trans]
+22.1 +14.2 61 +25 +26 комфорт 1010.6 991.1
12 13.09 СЗ 3 20 км 8/5 600 м
[Cu med, cong Ci fib]
+24.6 +11.9 45 +26 +29 жарко 1011.0 991.6
15 13.09 СЗ 4 20 км 8/5 600 м
[Cu Sc Ac trans]
+23.4 +8.3 38 +25 +25 комфорт 1012.4 992.9
18 13.09 С 2 20 км ясно +18.6 +9.4 55 +20 +20 тепло 1014.1 994.2 +25.2
21 13.09 штиль 0 20 км ясно +16.0 +9.4 65 +16 +16 по сезону 1015.3 995.2
00 14.09 штиль 0 20 км ясно +14.1 +9.3 73 +14 +14 по сезону 1015.4 995.2
03 14.09 штиль 0 20 км 3/0
[Ac trans]
+12.6 +9.1 79 +12 +12 по сезону 1016.2 995.9
06 14.09 Ю 2 20 км 3/0
[Ci fib]
+15.3 +9.4 68 +15 +18 по сезону 1016.5 996.4 +12.2
09 14.09 ЮЗ 7 20 км ясно +23.0 +5.0 31 +23 +26 комфорт 1015.3 995.7
12 14.09 ЮЗ 5 20 км 3/0
[Ci fib]
+26.8 +5.7 26 +26 +30 жарко 1013.1 993.8
15 14.09 Ю 5 20 км ясно +26.2 +4.6 25 +25 +26 комфорт 1011.2 991.9
18 14.09 Ю 3 20 км 3/0
[Ci fib]
+21.0 +12.9 60 +24 +24 комфорт 1011.1 991.5 +27.6
21 14.09 Ю 4 20 км 3/0
[Ac trans]
+18.5 +14.2 76 +19 +19 тепло 1011.0 991.2
00 15.09 ЮВ 2 20 км 3/0
[Ac trans]
+16.7 +15.6 93 +17 +17 тепло 1010.4 990.5
03 15.09 Ю 3 20 км 3/0
[Ac trans]
+15.7 +14.9 95 +15 +15 тепло 1009.6 989.7
06 15.09 ЮЗ 3 10 км ясно +17.2 +14.8 86 +17 +19 тепло 1010.7 990.9 +15.2
09 15.09 З 3 20 км ясно +27.8 +8.2 29 +28 +36 жарко 1011.3 992.1
12 15.09 С 4 20 км 1/0
[Ac trans]
+28.2 +9.0 30 +28 +33 жарко 1012.1 992.9
15 15.09 С 3 20 км 4/0
[Ac trans Ci fib]
+26.2 +9.1 34 +27 +27 жарко 1013.1 993.8
18 15.09 В 1 20 км 3/0
[Ac trans]
+21.7 +9.6 46 +23 +23 комфорт 1015.5 995.8 +28.9
21 15.09 СВ 2 20 км ясно +19.3 +8.0 48 +21 +21 комфорт 1016.4 996.5
00 16.09 СВ 2 20 км ясно +17.2 +8.1 55 +18 +18 тепло 1017.9 997.9
03 16.09 СВ 2 20 км ясно +15.3 +7.3 59 +15 +15 тепло 1018.1 997.9
06 16.09 В 3 20 км ясно +17.0 +7.6 54 +17 +19 тепло 1018.6 998.5 +14.5
09 16.09 ЮВ 4 20 км ясно +25.2 +9.1 36 +26 +32 жарко 1017.5 998.0
12 16.09 Ю 4 20 км 3/3 600 м
[Cu hum]
+29.6 +10.7 31 +30 +34 жарко 1015.8 996.6
15 16.09 Ю 6 20 км 4/4 600 м
[Cu hum]
+29.3 +10.0 30 +29 +30 жарко 1014.9 995.7
18 16.09 ЮВ 3 20 км ясно +23.6 +10.6 44 +25 +25 комфорт 1015.7 996.2 +30.2
21 16.09 Ю 2 20 км ясно +19.6 +11.6 60 +22 +22 комфорт 1016.5 996.7
00 17.09 ЮЗ 2 20 км ясно +18.2 +12.2 68 +19 +19 тепло 1016.6 996.7
03 17.09 В 2 20 км ясно +17.1 +13.2 78 +17 +17 тепло 1016.0 996.0
06 17.09 штиль 0 20 км ясно +19.9 +14.3 70 +22 +25 комфорт 1016.3 996.5 +16.8
09 17.09 Ю 4 20 км 3/0
[Ci fib]
+28.0 +8.8 30 +28 +34 жарко 1014.8 995.5
12 17.09 ЮВ 5 20 км 6/0
[Ci fib]
+30.7 +6.6 22 +29 +33 жарко 1012.3 993.2
15 17.09 Ю 4 20 км 8/0
[Ci fib]
+30.3 +6.2 22 +29 +29 жарко 1010.0 991.0
18 17.09 Ю 5 20 км 3/0
[Ci fib]
+25.4 +11.2 41 +27 +27 жарко 1009.5 990.2 +31.8
21 17.09 З 4 20 км 3/0
[Ci fib]
+21.5 +12.9 58 +24 +24 комфорт 1011.6 992.0
00 18.09 ЮЗ 2 20 км ясно +19.4 +11.9 62 +21 +21 комфорт 1011.4 991.7
03 18.09 штиль 0 20 км 8/0
[Ac trans]
+18.2 +11.3 64 +18 +18 тепло 1011.1 991.3
06 18.09 З 1 20 км 8/4 600 м
[Cb calv Ac trans Ci fib]
+21.7 +11.4 52 +24 +25 комфорт 1012.6 993.0 +18.0
09 18.09 СЗ 4 20 км 5/3 600 м
[Cu med, cong Ac trans Ci fib]
+25.7 +8.2 33 +26 +30 жарко 1012.9 993.5
12 18.09 СЗ 4 20 км 4/0
[Ac trans Ci fib]
+26.3 +4.1 24 +25 +30 комфорт 1012.9 993.5
15 18.09 С 2 20 км 5/0
[Ci fib]
+25.1 +3.1 24 +24 +25 комфорт 1012.9 993.5
18 18.09 С 3 20 км 5/0
[Ac trans Ci fib]
+21.2 +2.5 29 +21 +21 комфорт 1013.9 994.2 +27.3
21 18.09 С 3 20 км 8/0
[Ac trans]
+18.7 +4.1 38 +19 +19 тепло 1015.6 995.7
00 19.09 С 2 20 км 8/0
[Ac trans Ci fib]
+17.4 +5.4 45 +18 +18 тепло 1016.5 996.5
03 19.09 СВ 2 20 км 8/3 600 м
[Cb calv Ac trans]
+16.0 +5.0 48 +16 +16 тепло 1017.1 997.0
06 19.09 СВ 2 20 км 10/6 600 м
[Sc Ac trans]
+16.1 +4.8 47 +16 +17 тепло 1017.6 997.5 +15.3
09 19.09 В 4 20 км 10/6 600 м
[Sc Ac trans]
+20.6 +3.8 33 +21 +22 комфорт 1016.5 996.7
12 19.09 В 3 20 км {гроза, ливн. осадки} 10/3 600 м
[Cu hum Ac trans Ci fib]
+22.4 +3.5 29 +22 +25 комфорт 1014.7 995.1
15 19.09 СВ 2 20 км 10/3 600 м
[Cu hum Ac As Ci fib]
+22.5 +3.6 29 +22 +23 комфорт 1013.1 993.5
18 19.09 СВ 3 20 км 8/0
[Ac trans Ci fib]
+20.6 +2.9 31 +21 +21 комфорт 1012.9 993.2 +23.7 0.0
21 19.09 В 3 20 км 4/0
[Ci fib]
+19.7 +2.6 32 +20 +20 тепло 1012.4 992.6
00 20.09 С 3 20 км 6/6 600 м
[Sc]
+17.6 +3.5 39 +18 +18 тепло 1011.8 991.9
03 20.09 СВ 3 20 км 8/6 600 м
[Sc Ac trans Ci fib]
+16.7 +3.7 42 +17 +17 тепло 1011.1 991.1

 

Местоположение метеостанции Кишинев (Молдова): широта 47.02 долгота 28.98 высота над уровнем моря 173 м.

В архиве по умолчанию представлена погода в Кишиневе за последнюю неделю. Архивные данные за месяц целиком и за предыдущие месяцы, начиная с января 2011 года, Вы можете получить, выбрав интересующий диапазон дат из раскрывающегося списка и нажав кнопку "Ввод!".

Внимание! Время в таблицах - всемирное. Для получения местного времени необходимо прибавить поправку, которая в Кишиневе равна 2 ч.

Смотрите также архив погоды в соседних городах и на ближайших метеорологических станциях:

Погода в Дубоссарах (Молдова) (29 км)
Погода в Тирасполе (Молдова) (49 км)
Погода в Бравичах (Молдова) (57 км)
Погода в Штефан Водэ (Молдова) (67 км)
Погода в Корнестах (Молдова) (76 км)
Погода в Затишье (Одесская область, Украина) (76 км)
Погода в Леове (Молдова) (80 км)
Погода в Заставе (Одесская область, Украина) (81 км)
Погода в Рыбнице (Молдова) (83 км)
Погода в Комрате (Молдова) (84 км)

Пояснения к столбцам:

Ветер - указаны скорость ветра в м/с - средняя за 10 мин, порывы в срок и между сроками (в фигурных скобках) и направление, откуда дует ветер: С - северный, СВ - северо-восточный, В - восточный, ЮВ - юго-восточный, Ю - южный, ЮЗ - юго-западный, З - западный, СЗ - северо-западный.
Видимость - горизонтальная дальность видимости в метрах или километрах. При видимости от 1 до 10 км при отсутствии осадков обычно наблюдается дымка, при ухудшении видимости до 1 км и менее - туман. В сухую погоду видимость может ухудшаться дымом, пылью или мглою.
Явления - указаны атмосферные явления, наблюдавшиеся в срок или в последний час перед сроком; фигурными скобками обозначены явления, наблюдавшиеся между сроками (за 1-3 часа до срока); квадратными скобками обозначены град или гололедные отложения с указанием их диаметра в мм.
Облачность - указаны через наклонную черту общая и нижняя облачность в баллах и высота нижней границы облаков в метрах; квадратными скобками обозначены формы облаков: Ci - перистые, Cs - перисто-слоистые, Cc - перисто-кучевые, Ac - высококучевые, As - высокослоистые, Sc - слоисто-кучевые, Ns - слоисто-дождевые, Cu - кучевые, Cb - кучево-дождевые. Подробнее классификацию облаков см. в Атласе облаков (PDF).
T - Температура воздуха - температура, измеренная на высоте 2 м над землей.
Td - Температура точки росы - температура, при понижении до которой содержащийся в воздухе водяной пар достигнет насыщения.
f - Относительная влажность воздуха - влажноcть воздуха, измеренная на высоте 2 м над землей.
Te - Эффективная температура - температура, которую ощущает одетый по сезону человек в тени. Характеристика душности погоды. При расчете учитывается влияние влажности воздуха и скорости ветра на теплоощущения человека.
Tes - Эффективная температура на солнце - температура, которую ощущает человек, с поправкой на солнечный нагрев. Характеристика знойности погоды. Зависит от высоты солнца над горизонтом, облачности и скорости ветра. Ночью, в пасмурную погоду, а также при ветре 12 м/с и более поправка равна нулю.
P - Атмосферное давление - приведенное к уровню моря атмосферное давление.
Po - Атмосферное давление - измеренное на уровне метеостанции атмосферное давление.
Tmin - Минимальная температура - минимум температуры воздуха на высоте 2 м над землей.
Tmax - Максимальная температура - максимум температуры воздуха на высоте 2 м над землей.
R - Количество осадков - Количество выпавших осадков за период времени, мм. При наведении курсора мыши на число - период времени, за который выпало указанное количество осадков.
R24 - Количество осадков - Количество выпавших осадков за 24 часа, мм.
S - Снежный покров - Высота снежного покрова, см. При наведении курсора мыши на число - состояние снежного покрова и степень покрытия местности в баллах.